When you browse on this site, cookies collect data to enhance your experience and personalize the content and advertising you see.
Visit our Privacy Policy to learn more. By continuing to use the site, you agree to this use of cookies and data.
  • In Hungary
  • List of Countries
  • For 7 days
  • Water Temperature
  • Satellite Maps
  • Weather Map
  • News
  • Weather Widgets
  • user-avatar
    Login

    Hourly Weather Khalilabad

    Today, 26 April, Friday

    Time Temperature Precipitation Wind Pressure Humidity
    00:00 +36°C° 0 mm 2 mps 746 mmHg 28%
    01:00 +36°C° 0 mm 2 mps 745 mmHg 31%
    02:00 +35°C° 0 mm 3 mps 745 mmHg 34%
    03:00 +34°C° 0 mm 3 mps 745 mmHg 38%
    04:00 +33°C° 0 mm 3 mps 745 mmHg 40%
    05:00 +33°C° 0 mm 3 mps 745 mmHg 42%
    06:00 +31°C° 0 mm 2 mps 745 mmHg 46%
    07:00 +34°C° 0 mm 2 mps 746 mmHg 42%
    08:00 +35°C° 0 mm 2 mps 746 mmHg 39%
    09:00 +37°C° 0 mm 2 mps 746 mmHg 36%
    10:00 +39°C° 0 mm 2 mps 746 mmHg 30%
    11:00 +41°C° 0 mm 2 mps 746 mmHg 25%
    12:00 +43°C° 0 mm 1 mps 746 mmHg 20%
    13:00 +45°C° 0 mm 3 mps 745 mmHg 17%
    14:00 +47°C° 0 mm 4 mps 745 mmHg 14%
    15:00 +48°C° 0 mm 5 mps 744 mmHg 12%
    16:00 +48°C° 0 mm 5 mps 743 mmHg 11%
    17:00 +48°C° 0 mm 5 mps 743 mmHg 11%
    18:00 +47°C° 0 mm 5 mps 742 mmHg 10%
    19:00 +44°C° 0 mm 4 mps 743 mmHg 11%
    20:00 +43°C° 0 mm 3 mps 743 mmHg 12%
    21:00 +40°C° 0 mm 3 mps 743 mmHg 13%
    22:00 +39°C° 0 mm 3 mps 744 mmHg 13%
    23:00 +38°C° 0 mm 3 mps 744 mmHg 14%

    Tomorrow, 27 April, Saturday

    Time Temperature Precipitation Wind Pressure Humidity
    00:00 +38°C° 0 mm 3 mps 744 mmHg 14%
    01:00 +36°C° 0 mm 2 mps 744 mmHg 15%
    02:00 +35°C° 0 mm 2 mps 743 mmHg 17%
    03:00 +34°C° 0 mm 2 mps 743 mmHg 18%
    04:00 +34°C° 0 mm 2 mps 743 mmHg 23%
    05:00 +32°C° 0 mm 2 mps 743 mmHg 27%
    06:00 +31°C° 0 mm 2 mps 744 mmHg 31%
    07:00 +34°C° 0 mm 2 mps 744 mmHg 31%
    08:00 +36°C° 0 mm 3 mps 745 mmHg 30%
    09:00 +38°C° 0 mm 3 mps 746 mmHg 30%
    10:00 +40°C° 0 mm 3 mps 745 mmHg 25%
    11:00 +43°C° 0 mm 3 mps 745 mmHg 20%
    12:00 +45°C° 0 mm 2 mps 745 mmHg 15%
    13:00 +46°C° 0 mm 3 mps 745 mmHg 12%
    14:00 +48°C° 0 mm 4 mps 744 mmHg 10%
    15:00 +49°C° 0 mm 6 mps 743 mmHg 7%
    16:00 +48°C° 0 mm 5 mps 743 mmHg 7%
    17:00 +48°C° 0 mm 5 mps 742 mmHg 6%
    18:00 +47°C° 0 mm 4 mps 742 mmHg 6%
    19:00 +44°C° 0 mm 3 mps 742 mmHg 7%
    20:00 +41°C° 0 mm 2 mps 743 mmHg 9%
    21:00 +37°C° 0 mm 1 mps 743 mmHg 10%
    22:00 +37°C° 0 mm 1 mps 743 mmHg 11%
    23:00 +36°C° 0 mm 1 mps 743 mmHg 12%

    Day after tomorrow, 28 April, Sunday

    Time Temperature Precipitation Wind Pressure Humidity
    00:00 +35°C° 0 mm 1 mps 743 mmHg 12%
    01:00 +34°C° 0 mm 1 mps 743 mmHg 13%
    02:00 +33°C° 0 mm 1 mps 743 mmHg 15%
    03:00 +32°C° 0 mm 1 mps 742 mmHg 16%
    04:00 +32°C° 0 mm 1 mps 743 mmHg 19%
    05:00 +31°C° 0 mm 1 mps 743 mmHg 21%
    06:00 +30°C° 0 mm 1 mps 743 mmHg 24%
    07:00 +33°C° 0 mm 1 mps 743 mmHg 24%
    08:00 +36°C° 0 mm 2 mps 744 mmHg 25%
    09:00 +38°C° 0 mm 3 mps 745 mmHg 25%
    10:00 +40°C° 0 mm 2 mps 744 mmHg 22%
    11:00 +42°C° 0 mm 2 mps 744 mmHg 19%
    12:00 +44°C° 0 mm 1 mps 744 mmHg 16%
    13:00 +46°C° 0 mm 2 mps 743 mmHg 13%
    14:00 +48°C° 0 mm 4 mps 743 mmHg 10%
    15:00 +49°C° 0 mm 5 mps 742 mmHg 7%
    16:00 +48°C° 0 mm 5 mps 742 mmHg 7%
    17:00 +48°C° 0 mm 4 mps 741 mmHg 6%
    18:00 +48°C° 0 mm 4 mps 741 mmHg 6%
    19:00 +44°C° 0 mm 3 mps 741 mmHg 8%
    20:00 +41°C° 0 mm 2 mps 742 mmHg 9%
    21:00 +39°C° 0 mm 1 mps 743 mmHg 11%
    22:00 +37°C° 0 mm 1 mps 743 mmHg 12%
    23:00 +36°C° 0 mm 1 mps 743 mmHg 13%

    29 April, Monday

    Time Temperature Precipitation Wind Pressure Humidity
    00:00 +35°C° 0 mm 1 mps 743 mmHg 14%
    01:00 +34°C° 0 mm 1 mps 743 mmHg 15%
    02:00 +34°C° 0 mm 1 mps 742 mmHg 16%
    03:00 +33°C° 0 mm 1 mps 742 mmHg 16%
    04:00 +32°C° 0 mm 2 mps 742 mmHg 22%
    05:00 +32°C° 0 mm 2 mps 743 mmHg 28%
    06:00 +31°C° 0 mm 3 mps 743 mmHg 34%
    07:00 +34°C° 0 mm 4 mps 744 mmHg 37%
    08:00 +36°C° 0 mm 4 mps 744 mmHg 41%
    09:00 +37°C° 0 mm 4 mps 745 mmHg 45%
    10:00 +41°C° 0 mm 4 mps 745 mmHg 36%
    11:00 +43°C° 0 mm 3 mps 745 mmHg 28%
    12:00 +45°C° 0 mm 2 mps 745 mmHg 19%
    13:00 +47°C° 0 mm 3 mps 744 mmHg 15%
    14:00 +49°C° 0 mm 4 mps 743 mmHg 12%
    15:00 +51°C° 0 mm 6 mps 742 mmHg 8%
    16:00 +49°C° 0 mm 5 mps 742 mmHg 7%
    17:00 +49°C° 0 mm 5 mps 742 mmHg 7%
    18:00 +48°C° 0 mm 4 mps 741 mmHg 7%
    19:00 +45°C° 0 mm 3 mps 742 mmHg 9%
    20:00 +42°C° 0 mm 2 mps 742 mmHg 11%
    21:00 +39°C° 0 mm 1 mps 743 mmHg 13%
    22:00 +37°C° 0 mm 1 mps 743 mmHg 15%
    23:00 +37°C° 0 mm 1 mps 743 mmHg 17%

    30 April, Tuesday

    Time Temperature Precipitation Wind Pressure Humidity
    00:00 +36°C° 0 mm 1 mps 743 mmHg 20%
    01:00 +35°C° 0 mm 1 mps 742 mmHg 22%
    02:00 +35°C° 0 mm 2 mps 742 mmHg 25%
    03:00 +34°C° 0 mm 3 mps 742 mmHg 28%
    04:00 +34°C° 0 mm 3 mps 742 mmHg 35%
    05:00 +34°C° 0 mm 4 mps 743 mmHg 43%
    06:00 +33°C° 0 mm 5 mps 743 mmHg 50%
    07:00 +35°C° 0 mm 5 mps 744 mmHg 49%
    08:00 +36°C° 0 mm 5 mps 744 mmHg 49%
    09:00 +38°C° 0 mm 6 mps 745 mmHg 48%
    10:00 +40°C° 0 mm 5 mps 745 mmHg 41%
    11:00 +42°C° 0 mm 4 mps 744 mmHg 34%
    12:00 +44°C° 0 mm 4 mps 744 mmHg 26%
    13:00 +46°C° 0 mm 3 mps 743 mmHg 21%
    14:00 +47°C° 0 mm 3 mps 742 mmHg 16%
    15:00 +48°C° 0 mm 3 mps 741 mmHg 11%
    16:00 +48°C° 0 mm 3 mps 741 mmHg 10%
    17:00 +48°C° 0 mm 3 mps 740 mmHg 10%
    18:00 +47°C° 0 mm 3 mps 740 mmHg 10%
    19:00 +45°C° 0 mm 3 mps 740 mmHg 12%
    20:00 +43°C° 0 mm 3 mps 741 mmHg 15%
    21:00 +40°C° 0 mm 2 mps 741 mmHg 18%
    22:00 +39°C° 0 mm 3 mps 741 mmHg 21%
    23:00 +38°C° 0 mm 3 mps 741 mmHg 24%

    1 May, Wednesday

    Time Temperature Precipitation Wind Pressure Humidity
    00:00 +37°C° 0 mm 3 mps 741 mmHg 27%
    01:00 +37°C° 0 mm 4 mps 741 mmHg 26%
    02:00 +36°C° 0 mm 4 mps 741 mmHg 25%
    03:00 +36°C° 0 mm 5 mps 741 mmHg 25%
    04:00 +35°C° 0 mm 5 mps 741 mmHg 34%
    05:00 +35°C° 0 mm 5 mps 742 mmHg 44%
    06:00 +34°C° 0 mm 6 mps 742 mmHg 53%
    07:00 +35°C° 0 mm 6 mps 743 mmHg 50%
    08:00 +38°C° 0 mm 6 mps 743 mmHg 47%
    09:00 +39°C° 0 mm 7 mps 744 mmHg 44%
    10:00 +41°C° 0 mm 7 mps 744 mmHg 38%
    11:00 +44°C° 0 mm 6 mps 744 mmHg 33%
    12:00 +46°C° 0 mm 6 mps 743 mmHg 27%
    13:00 +47°C° 0 mm 5 mps 743 mmHg 23%
    14:00 +48°C° 0 mm 4 mps 742 mmHg 20%
    15:00 +48°C° 0 mm 3 mps 741 mmHg 16%
    16:00 +48°C° 0 mm 2 mps 740 mmHg 14%
    17:00 +47°C° 0 mm 1 mps 740 mmHg 13%
    18:00 +47°C° 0 mm 1 mps 740 mmHg 11%
    19:00 +45°C° 0 mm 1 mps 740 mmHg 13%
    20:00 +43°C° 0 mm 2 mps 741 mmHg 15%
    21:00 +41°C° 0 mm 2 mps 742 mmHg 17%
    22:00 +40°C° 0 mm 3 mps 742 mmHg 18%
    23:00 +38°C° 0 mm 4 mps 742 mmHg 19%
    Show more